GPS BIIF-5

Last updated on Sat Jun 27 2026 00:02:55 GMT+0000 (Coordinated Universal Time)

1 39533U 14008A 26177.15932725 .00000041 00000+0 00000+0 0 9996 2 39533 53.6559 148.9537 0084215 231.3935 127.8246 2.00560425 89866
UTC large
Height (km)
Speed (km/s)
/
Latitude / Longitude
Inclination (degrees)
Orbital Period (minutes)
Azimuth
Elevation
Range (km)
Doppler Factor

Next 0 passes for location: London (51.5072 / 0.1276)

No passes found over London.
GPS BIIF-5